Regional Weather Roundup
Issued by NWS

Home | Current Version | Previous Version | Graphics & Text | Print | Product List | Glossary On
Versions: 1 2 3 4 5 6 7 8 9 10 11 12 13 14 15 16 17 18 19 20 21 22 23 24 25 26 27 28 29 30 31 32 33 34 35 36 37 38 39 40 41 42 43 44 45 46 47 48 49 50
000
ASUS43 KDTX 200210
RWRMI
MICHIGAN HOURLY REGIONAL WEATHER ROUNDUP
NATIONAL WEATHER SERVICE DETROIT/PONTIAC MI
1000 PM EDT FRI SEP 19 2014

NOTE: "FAIR" INDICATES FEW OR NO CLOUDS BELOW 12,000 FEET WITH NO
SIGNIFICANT WEATHER AND/OR OBSTRUCTION TO VISIBILITY.

MIZ047>049-052>055-059>063-066>070-074>076-081>083-200300-
SOUTHEAST LOWER MICHIGAN

CITY           SKY/WX    TMP DP  RH WIND       PRES   REMARKS
ADRIAN         CLEAR     55  51  86 S6        30.09S
ALMA           PTCLDY    57  50  77 S8        30.01F
ANN ARBOR      CLEAR     53  48  83 S3        30.07F
BAD AXE        CLEAR     55  49  83 S13G18    30.05F
CARO           PTCLDY    53  46  77 S6        30.04F
DETROIT CITY   PTCLDY    59  50  72 S5        30.08F
DETROIT        MOCLDY    58  52  80 VRB5      30.09F
FLINT          CLEAR     57  46  66 S8        30.06S
GROSSE ILE     PTCLDY    55  52  88 CALM      30.07F
HILLSDALE      CLEAR     55  50  83 SE3       30.07F
HOWELL         CLEAR     54  49  85 S7        30.06S

CITY           SKY/WX    TMP DP  RH WIND       PRES   REMARKS
JACKSON        CLEAR     56  50  80 S9        30.07S
LAMBERTVILLE   CLEAR     54  50  87 CALM      30.09S FOG
LANSING        PTCLDY    57  49  74 S10       30.05F
LAPEER         FAIR      52  45  76 S3        30.07S
MASON          PTCLDY    54  49  84 S7        30.06S
MONROE         CLEAR     54  52  94 CALM      30.07S
MT. CLEMENS    PTCLDY    57  56  99 S8        30.07F
PONTIAC        MOCLDY    55  48  77 S6        30.07F
PORT HOPE        N/A     56  47  71 S8        30.03S
PORT HURON     PTCLDY    52  50  93 S7        30.09F
TRI CITIES     PTCLDY    58  47  66 S13       30.02F
TROY           PTCLDY    59  50  73 SE3       30.09F
SAGINAW HB     PTCLDY    55  45  67 S9        30.02F
$$
MIZ043>046-050>051-056>058-064>065-071>073-077>080-200300-
SOUTHWEST LOWER MICHIGAN

CITY           SKY/WX    TMP DP  RH WIND       PRES   REMARKS
BATTLE CREEK   PTCLDY    58  48  69 S8        30.05F
BENTON HARBOR  PTCLDY    59  48  67 S6        30.01F
BIG RAPIDS     PTCLDY    60  54  79 S10       29.97F
COLDWATER      CLEAR     57  49  74 SE3       30.06S
FREMONT        FAIR      62  48  60 S9        29.97F
HOLLAND        PTCLDY    60  51  72 S8        30.01S
GRAND RAPIDS   PTCLDY    58  52  80 S7        30.02F
IONIA          FAIR      59  49  70 S8        30.01F
KALAMAZOO      PTCLDY    60  49  66 S6        30.04F
LUDINGTON      MOCLDY    64  52  64 S10G17    29.92F
MARSHALL       PTCLDY    56  47  71 SE3       30.05F
MOUNT PLEASANT PTCLDY    58  51  77 S3        29.99F
MUSKEGON       MOCLDY    64  50  60 S12       29.98F
SOUTH HAVEN    PTCLDY    60  51  72 S3        30.01S
$$
MIZ016>042-200300-
NORTHERN LOWER MICHIGAN

CITY           SKY/WX    TMP DP  RH WIND       PRES   REMARKS
ALPENA         PTCLDY    57  47  69 S12       29.94F
BEAVER ISLAND  CLOUDY    64  53  68 S16G29    29.83S
BELLAIRE       MOCLDY    64  51  64 S13G20    29.88F
CADILLAC       MOCLDY    59  52  77 S13G18    29.94F
CHARLEVOIX     MOCLDY    64  53  66 S13G22    29.88F
FRANKFORT      CLOUDY    67  49  52 S17G26    29.87F
GAYLORD        MOCLDY    58  50  75 S14G26    29.89F
GRAYLING       MOCLDY    59  51  73 S12G18    29.94F
HARBOR SPRINGS MOCLDY    64  51  64 SW14      29.87S
HOUGHTON LAKE  PTCLDY    58  50  75 S12       29.96F
MANISTEE       MOCLDY    64  48  55 S9G20     29.91F
OSCODA         PTCLDY    58  47  67 S9        29.99S
PELLSTON       MOCLDY    63  51  65 S14G23    29.86F
ROGERS CITY    MOCLDY    58  52  79 S13G18    29.89F
TRAVERSE CITY  MOCLDY    65  51  60 VRB7G17   29.86F
$$
MIZ007>008-015-200300-
EASTERN UPPER MICHIGAN

CITY           SKY/WX    TMP DP  RH WIND       PRES   REMARKS
KINROSS        CLOUDY    61  52  72 S9G22     29.83R
MACKINAC ISLAN CLOUDY    61  52  71 S12G21    29.84F
NEWBERRY       CLOUDY    60  51  71 S21G32    29.81R
S. S. MARIE    LGT RAIN  60  50  69 E5        29.89R
MUNISING         N/A     65  51  60 S17G30    29.71F
$$
MIZ004>006-011>014-085-200300-
CENTRAL UPPER MICHIGAN

CITY           SKY/WX    TMP DP  RH WIND       PRES   REMARKS
MANISTIQUE     CLOUDY    61  55  79 SW17G28   29.80F
ESCANABA       CLOUDY    61  54  77 S16       29.79F
MENOMINEE      CLOUDY    63  52  67 SW12      29.81F
SAWYER-GWINN   MOCLDY    61  54  77 S18       29.73F
$$
MIZ001>003-009>011-084-200300-
WESTERN UPPER MICHIGAN

CITY           SKY/WX    TMP DP  RH WIND       PRES   REMARKS
IRON MOUNTAIN  CLOUDY    65  51  60 S14G24    29.71F
HOUGHTON       CLOUDY    63  55  75 SW8       29.65F
COPPER HARBOR    N/A     62  56  80 W8        29.62F
IRONWOOD       CLOUDY    66  57  72 SW12G20   29.64S
$$

ABBREVIATIONS USED IN REMARKS
   TC - TEMPERATURE IN CELSIUS
  WCI - WIND CHILL INDEX
   HX - HEAT INDEX
  VSB - VISIBILITY




USA.gov is the U.S. government's official web portal to all federal, state and local government web resources and services.